Location: ???? ?????????
(31.1304°N, 31.7111°E)
Time: 17:17:36
(UTC+00:00)

AO-7 - Visible Passes

Search period start: 13 April 2021 00:00
Search period end: 23 April 2021 00:00
Orbit: 1439 x 1459 km, 101.8° (Epoch: 13 April)

Date Brightness Start Highest point End Pass type
(mag) Time Alt. Az. Time Alt. Az. Time Alt. Az.
13 Apr ? 01:36:40 10° NNE 01:44:54 66° ESE 01:53:06 10° S visible
14 Apr ? 00:38:13 10° NE 00:44:40 25° E 00:51:06 10° SSE visible
14 Apr ? 02:29:36 10° N 02:37:39 58° WNW 02:45:42 10° SW visible
15 Apr ? 01:29:42 10° NNE 01:37:52 59° ESE 01:45:58 10° S visible
16 Apr ? 00:31:33 10° NE 00:37:35 22° E 00:43:34 10° SE visible
16 Apr ? 02:22:30 10° N 02:30:40 65° WNW 02:38:48 10° SSW visible
17 Apr ? 01:22:46 10° NNE 01:30:49 53° ESE 01:38:49 10° S visible
18 Apr ? 00:24:59 10° NE 00:30:29 19° E 00:35:56 10° SE visible
18 Apr ? 02:15:26 10° NNE 02:23:41 72° WNW 02:31:53 10° SSW visible
19 Apr ? 01:15:51 10° NNE 01:23:46 47° ESE 01:31:37 10° S visible
20 Apr ? 00:18:32 10° ENE 00:23:22 17° E 00:28:11 10° SE visible
20 Apr ? 02:08:23 10° NNE 02:16:40 79° WNW 02:24:56 10° SSW visible
21 Apr ? 01:08:58 10° NNE 01:16:43 42° ESE 01:24:23 10° S visible
22 Apr ? 00:12:15 10° ENE 00:16:15 14° E 00:20:14 10° ESE visible
22 Apr ? 02:01:21 10° NNE 02:09:40 87° WNW 02:17:58 10° SSW visible
